| time (UTC) | temp F | wind direction | speed MPH | gust MPH | rain 1hr in | rain 24hr in | rain mn in | humidity % | barometer mb |
| 20260902000050 | 66 | 91 | 6.0 | 12.0 | 0.00 | 0.00 | 0.00 | 34 | 1006.7 |
| 20260901234547 | 66 | 58 | 4.0 | 12.0 | 0.00 | 0.00 | 0.00 | 36 | 1006.8 |
| 20260901233046 | 66 | 102 | 2.0 | 13.0 | 0.00 | 0.00 | 0.00 | 36 | 1006.9 |
| 20260901231552 | 66 | 35 | 1.0 | 12.0 | 0.00 | 0.00 | 0.00 | 36 | 1006.9 |
| 20260901230042 | 66 | 56 | 2.0 | 14.0 | 0.00 | 0.00 | 0.00 | 34 | 1007.1 |
| 20260901224543 | 67 | 96 | 7.0 | 11.0 | 0.00 | 0.00 | 0.00 | 34 | 1007.1 |
| 20260901223038 | 67 | 92 | 5.0 | 13.0 | 0.00 | 0.00 | 0.00 | 29 | 1007.3 |
| 20260901221540 | 67 | 356 | 4.0 | 15.0 | 0.00 | 0.00 | 0.00 | 30 | 1007.3 |
| 20260901220040 | 68 | 62 | 7.0 | 16.0 | 0.00 | 0.00 | 0.00 | 29 | 1007.5 |
| 20260901214533 | 68 | 79 | 7.0 | 11.0 | 0.00 | 0.00 | 0.00 | 28 | 1007.6 |
| 20260901213030 | 67 | 87 | 3.0 | 15.0 | 0.00 | 0.00 | 0.00 | 30 | 1007.7 |
| 20260901211528 | 67 | 75 | 3.0 | 8.0 | 0.00 | 0.00 | 0.00 | 29 | 1007.7 |
| 20260901210025 | 66 | 106 | 5.0 | 11.0 | 0.00 | 0.00 | 0.00 | 30 | 1007.6 |
| 20260901204522 | 66 | 43 | 2.0 | 9.0 | 0.00 | 0.00 | 0.00 | 33 | 1007.7 |
| 20260901203021 | 68 | 308 | 4.0 | 9.0 | 0.00 | 0.00 | 0.00 | 33 | 1007.6 |
| 20260901201519 | 68 | 82 | 1.0 | 7.0 | 0.00 | 0.00 | 0.00 | 33 | 1007.8 |
| 20260901200015 | 66 | 20 | 3.0 | 13.0 | 0.00 | 0.00 | 0.00 | 35 | 1007.9 |
| 20260901194513 | 67 | 46 | 5.0 | 10.0 | 0.00 | 0.00 | 0.00 | 35 | 1008.1 |
| 20260901193010 | 67 | 90 | 3.0 | 11.0 | 0.00 | 0.00 | 0.00 | 34 | 1008.2 |
| 20260901191508 | 65 | 118 | 3.0 | 13.0 | 0.00 | 0.00 | 0.00 | 39 | 1008.4 |
| 20260901190009 | 66 | 19 | 4.0 | 9.0 | 0.00 | 0.00 | 0.00 | 40 | 1008.4 |
| 20260901184504 | 65 | 96 | 4.0 | 8.0 | 0.00 | 0.00 | 0.00 | 38 | 1008.3 |
| 20260901183107 | 65 | 56 | 3.0 | 8.0 | 0.00 | 0.00 | 0.00 | 38 | 1008.5 |
| 20260901181559 | 64 | 95 | 3.0 | 8.0 | 0.00 | 0.00 | 0.00 | 37 | 1008.3 |
| 20260901180053 | 64 | 353 | 2.0 | 9.0 | 0.00 | 0.00 | 0.00 | 39 | 1008.3 |
| 20260901174556 | 65 | 90 | 3.0 | 12.0 | 0.00 | 0.00 | 0.00 | 39 | 1008.2 |
| 20260901173048 | 63 | 54 | 3.0 | 11.0 | 0.00 | 0.00 | 0.00 | 40 | 1008.2 |
| 20260901171551 | 62 | 53 | 2.0 | 10.0 | 0.00 | 0.00 | 0.00 | 40 | 1008.0 |
| 20260901170042 | 62 | 107 | 3.0 | 7.0 | 0.00 | 0.00 | 0.00 | 40 | 1007.8 |
| 20260901164545 | 63 | 104 | 3.0 | 8.0 | 0.00 | 0.00 | 0.00 | 44 | 1007.6 |
| 20260901163100 | 62 | 23 | 3.0 | 8.0 | 0.00 | 0.00 | 0.00 | 45 | 1007.4 |
| 20260901161532 | 62 | 78 | 3.0 | 7.0 | 0.00 | 0.00 | 0.00 | 48 | 1007.4 |
| 20260901160029 | 62 | 245 | 1.0 | 9.0 | 0.00 | 0.00 | 0.00 | 49 | 1007.0 |
| 20260901154541 | 61 | 83 | 0.0 | 8.0 | 0.00 | 0.00 | 0.00 | 48 | 1007.1 |
| 20260901153035 | 61 | 51 | 2.0 | 6.0 | 0.00 | 0.00 | 0.00 | 51 | 1006.7 |
| 20260901151521 | 61 | 86 | 1.0 | 5.0 | 0.00 | 0.00 | 0.00 | 49 | 1006.8 |
| 20260901150016 | 60 | 60 | 3.0 | 6.0 | 0.00 | 0.00 | 0.00 | 52 | 1006.8 |
| 20260901144519 | 60 | 89 | 0.0 | 5.0 | 0.00 | 0.00 | 0.00 | 54 | 1006.9 |
| 20260901143010 | 59 | 93 | 0.0 | 7.0 | 0.00 | 0.00 | 0.00 | 56 | 1006.7 |
| 20260901141514 | 58 | 90 | 1.0 | 5.0 | 0.00 | 0.00 | 0.00 | 58 | 1006.5 |
| 20260901140005 | 58 | 104 | 2.0 | 4.0 | 0.00 | 0.00 | 0.00 | 54 | 1006.6 |
| 20260901134504 | 58 | 84 | 0.0 | 6.0 | 0.00 | 0.00 | 0.00 | 55 | 1006.1 |
| 20260901133002 | 57 | 119 | 1.0 | 4.0 | 0.00 | 0.00 | 0.00 | 54 | 1006.3 |
| 20260901131559 | 58 | 103 | 0.0 | 6.0 | 0.00 | 0.00 | 0.00 | 50 | 1006.1 |
| 20260901130057 | 58 | 137 | 0.0 | 4.0 | 0.00 | 0.00 | 0.00 | 43 | 1006.0 |
| 20260901124554 | 58 | 98 | 0.0 | 3.0 | 0.00 | 0.00 | 0.00 | 39 | 1006.1 |
| 20260901123052 | 58 | 128 | 0.0 | 3.0 | 0.00 | 0.00 | 0.00 | 34 | 1006.0 |
| 20260901121555 | 59 | 108 | 0.0 | 2.0 | 0.00 | 0.00 | 0.00 | 28 | 1006.1 |
| 20260901120049 | 58 | 131 | 0.0 | 2.0 | 0.00 | 0.00 | 0.00 | 23 | 1006.2 |
| 20260901114548 | 58 | 108 | 0.0 | 2.0 | 0.00 | 0.00 | 0.00 | 19 | 1006.2 |
| 20260901113045 | 58 | 150 | 0.0 | 3.0 | 0.00 | 0.00 | 0.00 | 20 | 1006.1 |
| 20260901111544 | 57 | 218 | 0.0 | 2.0 | 0.00 | 0.00 | 0.00 | 21 | 1006.3 |
| 20260901110047 | 57 | 196 | 0.0 | 1.0 | 0.00 | 0.00 | 0.00 | 22 | 1006.3 |
| 20260901104545 | 58 | 264 | 1.0 | 2.0 | 0.00 | 0.00 | 0.00 | 23 | 1006.2 |
| 20260901103041 | 58 | 293 | 1.0 | 2.0 | 0.00 | 0.00 | 0.00 | 22 | 1006.2 |
| 20260901101533 | 58 | 326 | 1.0 | 2.0 | 0.00 | 0.00 | 0.00 | 22 | 1006.2 |
| 20260901100043 | 58 | 327 | 0.0 | 1.0 | 0.00 | 0.00 | 0.00 | 28 | 1006.1 |
| 20260901094528 | 58 | 327 | 0.0 | 2.0 | 0.00 | 0.00 | 0.00 | 22 | 1006.2 |
| 20260901093025 | 59 | 41 | 0.0 | 2.0 | 0.00 | 0.00 | 0.00 | 28 | 1006.0 |
| 20260901091522 | 59 | 248 | 0.0 | 2.0 | 0.00 | 0.00 | 0.00 | 39 | 1006.0 |
| 20260901090032 | 59 | 302 | 0.0 | 3.0 | 0.00 | 0.00 | 0.00 | 42 | 1006.1 |
| 20260901084518 | 59 | 286 | 1.0 | 4.0 | 0.00 | 0.00 | 0.00 | 45 | 1006.0 |
| 20260901083015 | 59 | 40 | 1.0 | 2.0 | 0.00 | 0.00 | 0.00 | 34 | 1006.3 |
| 20260901081511 | 59 | 26 | 0.0 | 1.0 | 0.00 | 0.00 | 0.00 | 39 | 1006.0 |
| 20260901080014 | 59 | 319 | 0.0 | 3.0 | 0.00 | 0.00 | 0.00 | 46 | 1006.6 |
| 20260901074506 | 59 | 70 | 0.0 | 2.0 | 0.00 | 0.00 | 0.00 | 46 | 1006.3 |
| 20260901073004 | 59 | 103 | 0.0 | 1.0 | 0.00 | 0.00 | 0.00 | 47 | 1006.4 |
| 20260901071603 | 59 | 100 | 0.0 | 2.0 | 0.00 | 0.00 | 0.00 | 46 | 1006.4 |
| 20260901070100 | 59 | 100 | 0.0 | 1.0 | 0.00 | 0.00 | 0.00 | 43 | 1006.6 |
| 20260901064605 | 59 | 100 | 0.0 | 1.0 | 0.00 | 0.00 | 0.00 | 41 | 1006.2 |
| 20260901063100 | 60 | 100 | 0.0 | 2.0 | 0.00 | 0.00 | 0.00 | 43 | 1006.2 |
| 20260901061545 | 60 | 100 | 0.0 | 1.0 | 0.00 | 0.00 | 0.00 | 43 | 1006.4 |
| 20260901060044 | 60 | 83 | 0.0 | 1.0 | 0.00 | 0.00 | 0.00 | 38 | 1006.3 |
| 20260901054542 | 60 | 129 | 0.0 | 3.0 | 0.00 | 0.00 | 0.00 | 40 | 1006.2 |
| 20260901053037 | 60 | 78 | 0.0 | 1.0 | 0.00 | 0.00 | 0.00 | 40 | 1006.1 |
| 20260901051536 | 60 | 82 | 0.0 | 4.0 | 0.00 | 0.00 | 0.00 | 44 | 1006.3 |
| 20260901050034 | 60 | 82 | 0.0 | 3.0 | 0.00 | 0.00 | 0.00 | 48 | 1006.3 |
| 20260901044531 | 61 | 172 | 0.0 | 3.0 | 0.00 | 0.00 | 0.00 | 49 | 1006.2 |
| 20260901043032 | 60 | 136 | 0.0 | 1.0 | 0.00 | 0.00 | 0.00 | 45 | 1006.1 |
| 20260901041527 | 60 | 153 | 0.0 | 5.0 | 0.00 | 0.00 | 0.00 | 45 | 1006.3 |
| 20260901040026 | 59 | 267 | 1.0 | 3.0 | 0.00 | 0.00 | 0.00 | 48 | 1006.1 |
| 20260901034523 | 60 | 197 | 0.0 | 2.0 | 0.00 | 0.00 | 0.00 | 45 | 1005.7 |
| 20260901033031 | 60 | 67 | 0.0 | 4.0 | 0.00 | 0.00 | 0.00 | 47 | 1005.5 |
| 20260901031522 | 60 | 141 | 0.0 | 1.0 | 0.00 | 0.00 | 0.00 | 46 | 1005.5 |
| 20260901030015 | 59 | 141 | 0.0 | 2.0 | 0.00 | 0.00 | 0.00 | 46 | 1005.4 |
| 20260901024514 | 59 | 125 | 1.0 | 3.0 | 0.00 | 0.00 | 0.00 | 53 | 1005.0 |
| 20260901023012 | 59 | 146 | 1.0 | 3.0 | 0.00 | 0.00 | 0.00 | 44 | 1004.7 |
| 20260901021512 | 60 | 94 | 2.0 | 7.0 | 0.00 | 0.00 | 0.00 | 44 | 1004.9 |
| 20260901020008 | 61 | 106 | 4.0 | 10.0 | 0.00 | 0.00 | 0.00 | 47 | 1004.5 |
| 20260901014505 | 63 | 117 | 4.0 | 9.0 | 0.00 | 0.00 | 0.00 | 45 | 1004.6 |
| 20260901013004 | 64 | 101 | 3.0 | 10.0 | 0.00 | 0.00 | 0.00 | 44 | 1004.5 |
| 20260901011500 | 65 | 111 | 5.0 | 9.0 | 0.00 | 0.00 | 0.00 | 43 | 1004.7 |
| 20260901010100 | 65 | 69 | 4.0 | 10.0 | 0.00 | 0.00 | 0.00 | 42 | 1004.8 |
| 20260901004601 | 66 | 98 | 6.0 | 12.0 | 0.00 | 0.00 | 0.00 | 42 | 1004.8 |
| 20260901003102 | 66 | 103 | 6.0 | 11.0 | 0.00 | 0.00 | 0.00 | 42 | 1004.9 |
| 20260901001553 | 67 | 69 | 6.0 | 10.0 | 0.00 | 0.00 | 0.00 | 42 | 1004.8 |